Home > Weather > Bath > Past weeks

Flag for United Kingdom Past Weather in Bath, England, United Kingdom — Yesterday and Last 2 Weeks

Now
63 °F

Drizzle. Broken clouds.


Feels Like: 63 °F
Forecast: 56 / 69 °F
Wind: 8 mph from Southwest

Location: Bristol / Lulsgate

Current Time: Jul 24, 2016 at 1:55:52 PM

Latest Report: Jul 24, 2016 at 1:20 PM


Visibility: N/A

Pressure: 30.09 "Hg

Humidity: 88%

Dew Point: 59 °F

Location of BathLocation

Past Weather in Bath — Graph

°F

Bath Temperature Yesterday

Maximum temperature yesterday: 68 °F (at 1:20 PM)
Minimum temperature yesterday: 59 °F (at 12:20 AM)
Average temperature yesterday: 63 °F

High & Low Weather Summary for the Past Weeks

 TemperatureHumidityPressure
High86 °F (Jul 19, 12:50 PM)100% (Jul 10, 7:20 AM)30.36 "Hg (Jul 10, 7:20 AM)
Low48 °F (Jul 14, 5:20 AM)46% (Jul 19, 2:20 PM)29.68 "Hg (Jul 11, 12:50 AM)
Average62 °F84%30.06 "Hg
* Reported Jul 9 12:20 PM — Jul 24 12:20 PM, Bath, Weather by CustomWeather, © 2016

Note: Actual official high and low records may vary slightly from our data, if they occured in-between our weather recording intervals... More about our weather records

Advertising

Bath Weather History for the Previous 24 Hours

Scroll right to see more
 ConditionsComfort  
Time TempWeatherWind HumidityBarometerVisibility
12:20 PM
Sun, Jul 24
63 °FScattered showers. Partly sunny.7 mph83%30.09 "HgN/A
11:50 AM63 °FBroken clouds.10 mph88%30.09 "HgN/A
11:20 AM61 °FBroken clouds.8 mph94%30.09 "HgN/A
10:50 AM63 °FRain. Broken clouds.9 mph83%30.09 "HgN/A
10:20 AM61 °FScattered showers. Broken clouds.8 mph88%30.09 "HgN/A
9:50 AM63 °FBroken clouds.9 mph88%30.09 "HgN/A
9:20 AM61 °FPartly sunny.6 mph94%30.09 "HgN/A
8:50 AM59 °FDrizzle. Partly sunny.7 mph100%30.09 "HgN/A
8:20 AM59 °FPartly sunny.8 mph100%30.09 "HgN/A
7:50 AM59 °FRain. Partly sunny.6 mph100%30.09 "Hg5 mi
7:20 AM59 °FDrizzle. Low clouds.7 mph100%30.09 "Hg2 mi
6:50 AM61 °FMostly cloudy.6 mph94%30.09 "HgN/A
6:20 AM59 °FPartly cloudy.5 mph94%30.09 "HgN/A
5:50 AM61 °FLow clouds.5 mph88%30.09 "HgN/A
5:20 AM61 °FMostly cloudy.5 mph88%30.09 "HgN/A
4:50 AM61 °FMostly cloudy.6 mph88%30.09 "HgN/A
4:20 AM61 °FLow clouds.6 mph88%30.12 "HgN/A
3:50 AM61 °FOvercast.6 mph88%30.12 "HgN/A
3:20 AM61 °FMostly cloudy.5 mph88%30.12 "HgN/A
2:50 AM61 °FOvercast.3 mph88%30.12 "HgN/A
2:20 AM61 °FPassing clouds.5 mph88%30.12 "HgN/A
1:50 AM61 °FPassing clouds.3 mph88%30.12 "HgN/A
1:20 AM61 °FOvercast.3 mph88%30.12 "HgN/A
12:50 AM61 °FOvercast.2 mph88%30.15 "HgN/A
12:20 AM61 °FOvercast.3 mph88%30.15 "HgN/A
11:50 PM
Sat, Jul 23
61 °FMostly cloudy.6 mph88%30.15 "HgN/A
11:20 PM59 °FPassing clouds.8 mph88%30.15 "HgN/A
10:50 PM59 °FPassing clouds.8 mph88%30.15 "HgN/A
10:20 PM59 °FCool.7 mph88%30.15 "HgN/A
9:50 PM59 °FCool.8 mph82%30.15 "HgN/A
9:20 PM61 °FScattered clouds.8 mph83%30.15 "HgN/A
8:50 PM61 °FCool.9 mph83%30.15 "HgN/A
8:20 PM63 °FMild.10 mph77%30.15 "HgN/A
7:50 PM63 °FMild.12 mph77%30.15 "HgN/A
7:20 PM63 °FMild.12 mph77%30.15 "HgN/A
6:50 PM64 °FMild.13 mph73%30.12 "HgN/A
6:20 PM66 °FMild.10 mph73%30.15 "HgN/A
5:50 PM68 °FMild.14 mph69%30.15 "HgN/A
5:20 PM68 °FPassing clouds.13 mph69%30.15 "HgN/A
4:50 PM68 °FPassing clouds.12 mph69%30.15 "HgN/A
4:20 PM68 °FBroken clouds.12 mph69%30.15 "HgN/A
3:50 PM68 °FPassing clouds.10 mph69%30.15 "HgN/A
3:20 PM68 °FMild.12 mph69%30.15 "HgN/A
2:50 PM68 °FPartly sunny.10 mph69%30.15 "HgN/A
2:20 PM68 °FPartly sunny.12 mph73%30.15 "HgN/A
1:50 PM68 °FScattered clouds.10 mph73%30.15 "HgN/A
1:20 PM68 °FScattered clouds.9 mph73%30.15 "HgN/A
Weather by CustomWeather, © 2016

See weather overviewHow to use our weather pages